EHI
0 0 0 0 0 0 0 0 1 6 14 21 27 30 32 36 41 45 48 48 46 46 47 43 38 36 35 32 31 28 23 20 20 23 25 22 18 16 14 11 9 7 5 4
0 0 0 0 0 0 0 0 1 7 17 25 29 32 34 37 41 44 42 40 39 41 42 39 35 33 32 30 29 26 22 20 20 21 22 18 15 14 13 10 9 8 6 5
0 0 0 0 0 0 1 1 4 12 23 32 37 38 39 41 44 44 41 38 36 37 36 34 30 29 27 25 22 21 21 21 21 21 18 15 12 12 11 9 8 7 6 6
0 0 0 0 0 1 3 5 9 19 31 39 43 45 45 45 45 44 43 41 38 36 32 29 26 24 23 20 16 16 18 20 21 19 16 14 12 11 10 9 8 6 5 5
0 0 0 0 0 2 7 11 13 25 38 41 40 42 41 41 42 42 41 40 37 33 28 25 23 22 21 17 13 11 12 13 14 14 13 13 13 12 11 9 8 6 4 4
0 0 1 2 2 4 11 19 24 32 38 35 33 35 36 38 39 40 38 37 34 30 27 25 22 20 16 12 9 7 6 7 8 8 9 10 12 12 11 9 7 6 5 4
0 0 1 4 4 9 21 34 41 44 41 36 37 39 38 36 36 35 34 32 29 27 27 25 20 15 10 7 5 5 6 7 7 6 6 8 11 12 11 9 7 7 5 4
2 6 12 16 16 20 35 49 55 53 46 42 41 38 32 29 29 28 28 26 24 25 26 23 17 11 7 5 4 4 6 8 8 7 5 6 8 10 10 9 8 6 4 3
16 21 31 34 32 31 38 49 54 51 43 37 32 25 21 21 21 21 20 20 20 21 23 20 15 11 9 7 6 5 5 7 8 7 6 5 6 7 8 9 8 5 3 2
33 35 38 38 35 32 33 38 44 41 33 27 22 18 17 18 16 15 15 15 16 18 18 17 14 12 11 10 8 6 5 6 7 6 5 4 3 3 4 5 5 3 2 1
34 34 32 30 28 28 28 30 33 32 27 22 19 18 17 14 11 11 11 11 13 14 14 13 12 11 10 9 8 7 6 7 6 5 3 2 1 1 1 1 1 1 1 0
26 27 26 23 21 21 21 22 24 26 23 19 16 17 15 12 8 7 8 9 9 9 10 9 9 8 7 7 7 6 6 6 6 3 1 0 0 0 0 0 0 0 0 0
23 23 21 16 13 13 12 13 17 20 19 15 12 11 10 8 6 4 5 5 5 5 6 6 5 4 4 5 5 5 5 4 4 2 0 0 0 0 0 0 0 0 0 0
18 16 13 10 8 8 7 8 11 13 11 8 6 6 5 4 2 2 2 2 2 1 2 2 1 1 1 2 2 2 2 2 2 1 0 0 0 0 0 0 0 0 0 0
7 6 6 6 6 6 5 5 6 6 4 3 3 3 2 1 0 0 0 0 0 0 0 0 0 0 0 0 0 0 0 1 1 1 0 0 0 0 0 0 0 0 0 0
0 1 2 3 3 3 3 3 3 2 1 1 1 2 1 0 0 0 0 0 0 0 0 0 0 0 0 0 0 0 0 0 0 0 0 0 0 0 0 0 0 0 0 0
1 2 2 1 1 1 1 2 3 2 1 0 0 0 0 0 0 0 0 0 0 0 0 0 0 0 0 0 0 0 0 0 0 0 0 0 0 0 0 0 0 0 0 0
1 2 2 1 0 0 1 1 2 2 1 0 0 0 0 0 0 0 0 0 0 0 0 0 0 0 0 0 0 0 0 0 0 0 0 0 0 0 0 0 0 0 0 0
1 1 1 0 1 1 1 1 2 3 2 1 0 0 0 0 0 0 0 0 0 0 0 0 0 0 0 0 0 0 0 0 0 0 0 0 0 0 0 0 0 0 0 0
2 1 1 1 1 2 1 1 2 3 2 1 0 0 0 0 0 0 0 0 0 0 0 0 0 0 0 0 0 0 0 0 0 0 0 0 0 0 0 0 0 0 0 0
1 1 2 2 3 3 2 2 3 3 2 1 0 0 0 0 0 0 0 0 0 0 0 0 0 0 0 0 0 0 0 0 0 0 0 0 0 0 0 0 0 0 0 0
2 3 4 4 5 4 3 3 3 3 2 1 0 0 0 0 0 0 0 0 0 0 0 0 0 0 0 0 0 0 0 0 0 0 0 0 0 0 0 0 0 0 0 0
5 5 5 4 4 4 4 3 3 3 2 1 0 0 0 0 0 0 0 0 0 0 0 0 0 0 0 0 0 0 0 0 0 0 0 0 0 0 0 0 0 0 0 0
5 5 3 2 2 3 3 3 3 2 1 0 0 0 0 0 0 0 0 0 0 0 0 0 0 0 0 0 0 0 0 0 0 0 0 0 0 0 0 0 0 0 0 0
3 2 1 0 1 2 2 2 1 1 0 0 0 0 0 0 0 0 0 0 0 0 0 0 0 0 0 0 0 0 0 0 0 0 0 0 0 0 0 0 0 0 0 0
1 1 0 0 0 1 1 1 0 0 0 0 0 0 0 0 0 0 0 0 0 0 0 0 0 0 0 0 0 0 0 0 0 0 0 0 0 0 0 0 0 0 0 0
0 0 0 0 0 0 0 0 0 0 0 0 0 0 0 0 0 0 0 0 0 0 0 0 0 0 0 0 0 0 0 0 0 0 0 0 0 0 0 0 0 0 0 0
Wind_Speed
14 12 10 13 14 16 16 13 9 4 6 7 7 10 11 11 11 10 9 10 9 8 7 7 6 5 5 5 5 5 5 4 3 3 3 3 3 3 2 2 3 3 3 3
14 14 12 12 14 14 14 12 9 6 5 6 7 8 9 10 11 10 8 9 9 8 8 7 6 5 5 5 6 5 4 3 3 3 4 4 4 4 4 4 4 4 4 4
12 12 12 13 14 14 12 11 8 6 8 8 8 8 9 9 10 10 8 9 8 8 7 6 6 5 5 5 5 4 4 4 3 4 4 4 5 5 5 5 5 6 6 5
10 11 14 10 9 10 9 6 6 10 13 11 11 10 9 9 9 9 9 8 7 6 7 6 6 6 5 5 5 5 4 4 4 4 5 5 5 5 5 5 5 5 5 6
10 12 11 7 6 7 7 5 8 12 14 14 15 13 9 9 9 9 8 8 7 7 7 6 6 6 6 6 6 5 5 4 4 4 5 5 6 6 5 6 6 5 5 6
9 10 9 5 5 5 4 6 9 13 12 13 12 8 7 8 9 9 8 7 7 8 8 7 6 6 6 6 6 5 5 5 5 5 5 5 5 5 5 5 5 6 7 6
12 10 4 2 4 4 3 4 9 11 11 10 7 8 11 11 10 9 8 8 8 8 7 6 6 6 7 7 6 5 5 6 6 6 5 5 5 5 5 5 6 7 8 8
12 11 4 2 2 2 4 7 9 10 11 12 14 15 13 12 10 9 8 8 8 8 7 7 7 7 8 7 6 6 6 7 7 6 5 5 5 4 4 5 5 6 7 8
3 3 8 9 9 8 8 7 9 12 12 13 14 14 13 11 10 9 8 7 7 8 8 7 7 7 8 6 6 6 7 8 7 7 6 5 5 4 3 3 4 5 5 6
8 10 11 11 11 11 10 7 10 12 12 13 13 13 12 10 9 8 8 7 6 8 8 7 7 7 7 6 6 8 8 7 7 8 8 8 7 6 5 4 4 5 5 6
9 11 11 9 10 11 9 9 12 12 12 13 13 13 12 10 9 7 7 7 7 8 8 8 8 8 7 6 7 8 7 7 8 8 9 11 11 10 9 9 6 6 5 6
5 8 9 10 9 10 10 10 12 13 13 13 13 13 12 10 8 8 8 8 8 9 9 9 9 8 7 6 6 7 7 6 6 7 8 9 10 11 18 15 18 17 14 10
9 11 14 12 11 11 11 11 12 13 13 12 12 12 12 11 9 9 8 9 9 10 10 10 10 9 7 7 7 7 7 7 6 7 7 7 7 8 9 11 16 16 15 14
13 13 13 11 11 11 13 14 14 14 13 13 12 12 12 11 11 10 9 9 9 10 11 11 10 9 7 7 8 8 8 8 7 6 6 7 7 6 7 8 8 8 8 9
9 10 12 12 12 11 12 13 14 13 12 12 12 12 12 12 11 11 10 10 10 11 10 10 10 8 7 8 9 8 7 6 6 6 6 6 6 7 7 8 7 7 6 5
10 12 12 12 12 11 11 13 13 12 12 12 12 12 12 12 11 11 10 9 10 10 9 10 10 8 8 9 9 8 7 9 7 6 6 6 6 6 7 7 6 6 5 5
10 10 11 12 12 11 11 12 12 12 12 12 12 13 12 12 12 11 10 10 10 10 10 9 9 8 7 7 7 6 6 7 7 6 6 6 6 6 6 7 6 6 6 5
8 9 10 11 11 12 12 12 12 12 12 13 13 12 12 12 11 10 10 10 11 10 9 9 8 7 7 7 5 5 5 5 6 7 6 6 6 6 6 6 6 7 5 4
9 10 12 12 12 12 12 12 12 13 12 12 12 12 12 11 10 10 9 10 11 10 8 8 7 7 7 6 4 3 6 7 7 6 6 6 6 6 6 6 5 5 5 5
11 12 13 14 13 13 13 13 13 12 11 12 12 12 12 11 10 10 10 9 7 7 7 6 6 6 6 4 2 4 6 7 7 6 6 6 6 5 5 5 5 5 5 5
13 13 14 14 13 12 12 12 12 12 12 12 12 12 11 10 10 9 8 9 7 6 6 6 4 4 4 2 0 4 6 6 6 6 5 5 5 5 5 4 5 5 4 4
12 13 14 14 13 12 11 11 12 12 12 12 12 12 11 10 9 8 8 6 6 5 4 4 5 6 5 2 3 5 5 5 5 5 5 5 4 4 4 4 4 4 4 4
12 13 13 13 13 12 12 11 11 11 12 12 11 10 9 8 7 7 7 6 6 5 4 5 6 6 6 1 3 5 5 5 5 5 5 5 5 4 4 4 4 4 3 3
13 13 13 12 12 13 12 11 10 9 11 10 9 9 8 7 7 7 8 8 8 7 7 6 6 5 3 2 3 4 4 4 4 4 5 5 5 4 4 3 3 3 3 3
13 13 13 13 11 10 11 11 11 10 10 8 10 9 7 7 8 8 8 9 9 8 7 5 3 2 1 3 4 4 4 4 4 4 5 4 4 4 3 3 3 2 2 2
12 10 9 9 9 8 9 8 8 7 8 8 7 7 8 8 9 8 7 9 9 6 6 5 3 2 2 3 4 4 4 4 3 3 4 3 4 4 3 3 3 2 2 2
11 9 8 8 8 8 8 8 8 8 7 8 8 7 8 8 8 7 8 7 7 5 5 4 3 3 3 3 3 3 3 2 3 3 3 2 3 3 3 3 2 2 2 2
Wind_Direction
254 260 234 223 227 225 227 234 234 207 163 175 174 146 137 133 132 130 129 118 113 111 108 104 100 98 97 94 89 88 91 90 96 107 112 110 103 97 95 110 127 124 128 129
243 253 249 234 230 230 228 231 226 172 161 155 141 129 132 136 136 131 130 123 119 112 108 103 100 97 96 95 94 95 95 91 89 101 104 100 96 97 93 94 96 99 98 99
240 235 240 240 229 222 228 227 216 180 149 141 129 132 129 132 130 131 128 117 114 111 106 102 97 93 94 91 92 92 95 96 93 104 102 96 100 98 96 93 92 93 94 92
242 238 236 240 238 223 215 211 162 131 132 131 126 115 107 109 115 114 111 110 111 113 112 110 103 93 88 90 93 92 87 84 83 93 102 104 101 97 93 90 89 90 91 90
234 234 232 224 230 220 187 173 143 136 131 129 129 117 97 94 99 100 101 102 106 106 102 95 93 94 90 84 83 81 79 79 80 83 90 95 97 97 95 94 89 87 84 83
235 237 232 232 279 302 171 161 129 128 134 139 144 140 119 107 102 96 90 89 95 98 94 89 84 89 95 90 84 79 77 75 76 76 85 92 96 99 101 102 101 97 86 79
232 241 229 244 274 285 206 141 116 125 134 138 125 104 116 113 103 97 93 90 89 89 85 80 82 89 87 82 75 71 75 76 76 77 82 87 92 98 102 102 100 97 92 81
226 233 206 149 172 134 91 83 98 108 111 107 105 110 114 114 111 105 100 98 96 94 87 78 79 88 87 81 76 75 76 76 73 73 81 87 89 92 101 108 107 104 97 88
214 131 97 94 100 99 94 93 103 106 111 117 119 120 118 114 111 106 100 97 98 100 93 83 81 87 93 89 86 84 81 77 74 69 68 67 77 84 93 107 109 106 101 95
111 109 102 96 97 93 92 95 107 112 121 122 122 121 118 114 110 104 101 101 101 101 95 86 83 87 90 92 91 87 84 81 76 73 66 56 52 51 53 54 80 92 92 94
118 124 114 102 98 96 96 100 101 106 110 114 116 114 110 105 102 100 98 95 96 97 95 91 87 86 89 94 97 94 91 89 85 80 77 69 61 48 54 48 50 74 82 84
130 140 125 117 110 107 106 105 105 106 105 106 109 112 109 102 97 95 95 94 93 95 95 92 89 87 83 89 100 102 100 95 95 94 92 93 90 75 57 62 60 63 70 82
109 105 106 109 105 104 105 103 103 103 105 106 107 109 108 105 101 98 95 97 99 100 99 95 89 82 78 82 88 90 94 94 95 96 96 99 102 102 95 73 63 61 64 72
97 103 109 109 105 101 105 105 103 102 102 104 107 108 109 106 101 96 94 98 102 101 98 96 92 85 82 88 89 89 91 89 93 96 100 102 104 105 103 104 97 82 65 64
100 106 112 112 110 107 110 112 111 108 107 106 108 109 109 108 104 101 98 99 99 97 97 96 93 90 89 89 85 83 85 86 87 93 95 98 101 102 101 99 99 103 101 78
108 111 117 120 117 119 121 120 117 115 114 112 110 108 107 105 104 102 99 99 99 97 95 94 92 92 92 92 88 84 84 87 90 97 98 96 94 95 97 98 97 95 93 90
128 129 130 128 126 125 122 118 118 117 115 113 112 111 108 104 101 98 96 94 93 94 96 96 96 97 96 96 98 100 101 104 104 95 93 93 92 92 93 97 97 94 87 74
127 128 129 132 130 125 119 116 116 117 116 116 115 113 112 109 107 105 105 103 98 94 93 98 100 100 97 94 91 105 112 107 98 93 93 91 92 95 98 101 105 105 109 101
127 127 126 126 123 121 120 120 119 116 116 117 116 114 112 110 110 111 109 105 103 99 95 97 103 109 107 104 99 116 110 104 99 97 100 106 107 105 104 104 102 102 100 93
117 118 121 122 122 122 121 120 119 117 118 118 117 116 115 114 115 113 108 100 95 102 109 106 108 103 106 98 78 113 109 111 112 112 111 110 103 101 100 102 102 97 94 94
125 126 125 124 122 121 123 125 124 122 120 119 118 117 117 116 117 116 113 103 97 102 110 109 103 99 92 69 98 107 108 110 111 111 108 104 103 101 98 94 93 94 96 95
128 128 128 127 124 123 123 123 124 124 123 123 123 123 122 122 118 109 100 105 114 108 117 112 96 72 40 358 115 105 106 108 108 108 104 102 100 96 94 93 92 91 89 88
126 128 128 128 128 126 125 125 126 125 125 126 128 129 127 126 128 125 117 113 115 106 96 87 76 55 16 43 94 101 103 104 106 107 107 104 100 98 95 91 88 89 91 92
129 130 129 128 129 128 128 127 123 123 125 125 127 130 131 127 118 109 107 103 96 102 94 86 68 39 1 93 91 96 99 102 105 110 110 108 104 101 97 94 93 95 94 95
130 130 130 132 132 130 128 127 127 130 130 130 134 136 129 116 115 113 114 114 119 118 117 107 74 4 356 97 88 88 82 75 73 84 98 105 113 113 109 106 101 96 94 92
130 132 132 134 130 132 135 136 136 137 134 130 126 121 114 111 115 120 125 129 127 127 127 134 146 172 126 101 94 92 94 105 101 94 91 102 105 102 98 95 97 93 91 86
129 128 128 128 131 136 138 138 135 135 132 129 125 125 124 125 125 127 130 134 139 141 137 141 142 135 122 114 105 103 103 100 96 94 99 98 100 105 112 115 107 103 101 100